This is the latest recevied weather packets stored in our database for station/object KC3ULW-13. If no packets are shown the sender has not sent any weather packets the latest 10 day(s).
| Time | Temp. | Humidity | Pressure | Rain* | Wind** | Luminosity | Snow |
|---|---|---|---|---|---|---|---|
| 1777594682 | 8.89° C | 70% | 1016.9 hPa | 0 mm | - | 1 W/m² | - |
| 1777594379 | 8.89° C | 71% | 1017 hPa | 0 mm | - | 2 W/m² | - |
| 1777594074 | 8.89° C | 70% | 1016.9 hPa | 0 mm | - | 5 W/m² | - |
| 1777593770 | 9.44° C | 69% | 1016.8 hPa | 0 mm | - | 7 W/m² | - |
| 1777593467 | 10° C | 67% | 1016.9 hPa | 0 mm | - | 10 W/m² | - |
| 1777593165 | 10.56° C | 66% | 1016.7 hPa | 0 mm | - | 16 W/m² | - |
| 1777592864 | 10.56° C | 66% | 1016.7 hPa | 0 mm | - | 20 W/m² | - |
| 1777592561 | 10.56° C | 66% | 1016.6 hPa | 0 mm | - | 23 W/m² | - |
| 1777592257 | 10° C | 66% | 1016.5 hPa | 0 mm | - | 28 W/m² | - |
| 1777591953 | 10° C | 66% | 1016.7 hPa | 0 mm | - | 32 W/m² | - |
| 1777591649 | 10° C | 67% | 1016.6 hPa | 0 mm | - | 49 W/m² | - |
| 1777591345 | 10° C | 67% | 1016.5 hPa | 0 mm | - | 49 W/m² | - |
| 1777591042 | 10° C | 67% | 1016.6 hPa | 0 mm | - | 46 W/m² | - |
| 1777590737 | 10° C | 67% | 1016.5 hPa | 0 mm | - | 110 W/m² | - |
| 1777590433 | 10° C | 67% | 1016.5 hPa | 0 mm | - | 62 W/m² | - |
| 1777590130 | 10° C | 68% | 1016.7 hPa | 0 mm | - | 99 W/m² | - |
| 1777589827 | 10° C | 67% | 1016.9 hPa | 0 mm | - | 58 W/m² | - |
| 1777589522 | 10° C | 67% | 1016.7 hPa | 0 mm | - | 61 W/m² | - |
| 1777589221 | 10° C | 67% | 1016.7 hPa | 0 mm | - | 67 W/m² | - |
| 1777588917 | 10° C | 67% | 1016.9 hPa | 0 mm | - | 89 W/m² | - |
| 1777588613 | 10° C | 67% | 1016.7 hPa | 0 mm | - | 88 W/m² | - |
| 1777588308 | 10° C | 68% | 1016.5 hPa | 0 mm | - | 48 W/m² | - |
| 1777588004 | 9.44° C | 70% | 1016.6 hPa | 0 mm | - | 39 W/m² | - |
| 1777587700 | 9.44° C | 70% | 1016.5 hPa | 0 mm | - | 52 W/m² | - |
| 1777587394 | 9.44° C | 71% | 1016.5 hPa | 0 mm | - | 63 W/m² | - |
* Rain latest hour (hover to see other rain measurements)
** Current wind speed in m/s (hover to see current wind gust speed)